AFL426 UUEE-HESH

Flight info

Callsign AFL426
Flight time N/A
Altitude 33000
Route TOGMO3H TOGMO M56 ABAGI B105 NIMTA/K0869F340 T689 OBABI G481 WGD/K0854F350 A927 SL N50 LIDUS W87 ZG/K0848F340 DCT DITEK/K0843F360 DCT AMKOL DCT GOTIK DCT RESLO A944 GUBOR G487 ODIRA/N0453F360 UW96 SIN UT61 BAG/N0453F370 UP29 AYT UM855 TOMBI M855 RASDA A16 CVO L677 MENLI N697 SISIK V603 DASOT W611 DELNA DELNA1G
Aircraft A320/M-SDE3FGHIRWY/LB1

Departure

Time N/A
Airport Sheremetyevo International Airport (UUEE)

Arrival

Time 2026-04-27 16:04
Airport Sharm El Sheikh International Airport (HESH)
Time Latitude Longitude Altitude Speed Heading
2026-04-27 14:05 40.59438 33.40102 36090 ft 442 kts 223°
2026-04-27 14:06 40.54786 33.34798 36097 ft 443 kts 223°
2026-04-27 14:06 40.50120 33.29499 36085 ft 443 kts 223°
2026-04-27 14:07 40.45483 33.24245 36082 ft 443 kts 223°
2026-04-27 14:07 40.40809 33.18957 36084 ft 444 kts 223°
2026-04-27 14:08 40.36127 33.13668 36085 ft 444 kts 223°
2026-04-27 14:08 40.31436 33.08379 36078 ft 445 kts 223°
2026-04-27 14:09 40.26739 33.03096 36075 ft 446 kts 223°
2026-04-27 14:09 40.22027 32.97813 36075 ft 446 kts 223°
2026-04-27 14:10 40.17315 32.92533 36069 ft 446 kts 223°
2026-04-27 14:10 40.12601 32.87250 36072 ft 446 kts 223°
2026-04-27 14:11 40.07855 32.82017 36073 ft 447 kts 219°
2026-04-27 14:11 40.02450 32.77944 36065 ft 450 kts 209°
2026-04-27 14:12 39.96878 32.74205 36068 ft 451 kts 209°
2026-04-27 14:12 39.91338 32.70484 36070 ft 451 kts 209°
2026-04-27 14:13 39.85755 32.66749 36072 ft 451 kts 209°
2026-04-27 14:13 39.80164 32.63020 36075 ft 452 kts 209°
2026-04-27 14:14 39.74571 32.59296 36081 ft 452 kts 209°
2026-04-27 14:14 39.68969 32.55569 36077 ft 452 kts 209°
2026-04-27 14:15 39.63369 32.51853 36079 ft 452 kts 209°
2026-04-27 14:15 39.57769 32.48142 36075 ft 452 kts 209°
2026-04-27 14:16 39.52168 32.44435 36074 ft 453 kts 209°
2026-04-27 14:16 39.46551 32.40727 36079 ft 453 kts 209°
2026-04-27 14:17 39.40967 32.37047 36068 ft 453 kts 208°
2026-04-27 14:17 39.35342 32.33346 36072 ft 454 kts 209°
2026-04-27 14:18 39.29711 32.29645 36074 ft 454 kts 209°
2026-04-27 14:18 39.24069 32.25946 36068 ft 455 kts 208°
2026-04-27 14:19 39.18420 32.22256 36076 ft 455 kts 208°
2026-04-27 14:19 39.12766 32.18570 36076 ft 455 kts 208°
2026-04-27 14:20 39.07107 32.14885 36070 ft 456 kts 208°
2026-04-27 14:20 39.01435 32.11200 36074 ft 457 kts 209°
2026-04-27 14:21 38.95761 32.07512 36077 ft 457 kts 208°
2026-04-27 14:21 38.90125 32.03852 36082 ft 457 kts 209°
2026-04-27 14:22 38.84438 32.00165 36085 ft 457 kts 208°
2026-04-27 14:22 38.78751 31.96503 36086 ft 457 kts 208°
2026-04-27 14:23 38.73061 31.92848 36081 ft 457 kts 208°
2026-04-27 14:23 38.67365 31.89186 36081 ft 458 kts 208°
2026-04-27 14:24 38.61674 31.85521 36077 ft 458 kts 208°
2026-04-27 14:24 38.55985 31.81865 36074 ft 458 kts 208°
2026-04-27 14:25 38.50289 31.78221 36079 ft 458 kts 208°
2026-04-27 14:25 38.44596 31.74583 36085 ft 457 kts 208°
2026-04-27 14:26 38.38943 31.70979 36077 ft 457 kts 208°
2026-04-27 14:26 38.33250 31.67358 36078 ft 457 kts 209°
2026-04-27 14:27 38.27560 31.63731 36078 ft 457 kts 208°
2026-04-27 14:27 38.21870 31.60123 36077 ft 457 kts 208°
2026-04-27 14:28 38.16174 31.56525 36084 ft 457 kts 208°
2026-04-27 14:28 38.10480 31.52928 36083 ft 457 kts 208°
2026-04-27 14:29 38.04788 31.49335 36081 ft 457 kts 209°
2026-04-27 14:29 37.99101 31.45743 36089 ft 456 kts 209°
2026-04-27 14:30 37.93410 31.42165 36088 ft 456 kts 208°
2026-04-27 14:30 37.87758 31.38616 36081 ft 456 kts 209°
2026-04-27 14:31 37.82646 31.35411 36072 ft 456 kts 208°
2026-04-27 14:31 37.76958 31.31852 36074 ft 456 kts 208°
2026-04-27 14:32 37.71265 31.28292 36064 ft 456 kts 208°
2026-04-27 14:32 37.65571 31.24748 36058 ft 456 kts 208°
2026-04-27 14:33 37.60838 31.21807 36162 ft 456 kts 208°
2026-04-27 14:33 37.57997 31.20039 36424 ft 455 kts 209°
2026-04-27 14:33 37.55160 31.18276 36673 ft 454 kts 209°
2026-04-27 14:33 37.51406 31.15946 36990 ft 453 kts 209°
2026-04-27 14:34 37.48576 31.14187 37217 ft 453 kts 209°
2026-04-27 14:34 37.46668 31.13003 37379 ft 453 kts 209°
2026-04-27 14:34 37.43840 31.11252 37616 ft 452 kts 209°
2026-04-27 14:34 37.41020 31.09507 37850 ft 451 kts 209°
2026-04-27 14:35 37.38236 31.07788 37998 ft 452 kts 209°
2026-04-27 14:35 37.32572 31.04295 38008 ft 452 kts 209°
2026-04-27 14:36 37.26930 31.00814 38000 ft 452 kts 209°
2026-04-27 14:36 37.21292 30.97339 38003 ft 451 kts 209°
2026-04-27 14:37 37.15639 30.93871 37992 ft 451 kts 209°
2026-04-27 14:37 37.09992 30.90412 38006 ft 452 kts 209°
2026-04-27 14:38 37.04379 30.86971 37995 ft 451 kts 209°
2026-04-27 14:38 36.98738 30.83515 38010 ft 451 kts 209°
2026-04-27 14:39 36.92951 30.80451 38008 ft 456 kts 198°
2026-04-27 14:39 36.86608 30.79639 37993 ft 463 kts 181°
2026-04-27 14:40 36.80167 30.79878 38007 ft 463 kts 181°
2026-04-27 14:40 36.73714 30.80095 37995 ft 463 kts 181°
2026-04-27 14:41 36.67266 30.80316 37977 ft 463 kts 181°
2026-04-27 14:41 36.60817 30.80536 37958 ft 463 kts 182°
2026-04-27 14:42 36.54372 30.80753 37951 ft 463 kts 181°
2026-04-27 14:42 36.47923 30.80978 37952 ft 463 kts 181°
2026-04-27 14:43 36.41519 30.81199 37956 ft 464 kts 181°
2026-04-27 14:43 36.35061 30.81418 37960 ft 464 kts 181°
2026-04-27 14:44 36.28601 30.81631 37960 ft 464 kts 182°
2026-04-27 14:44 36.22147 30.81848 37948 ft 464 kts 182°
2026-04-27 14:45 36.15691 30.82074 37954 ft 464 kts 182°
2026-04-27 14:45 36.09238 30.82291 37960 ft 464 kts 182°
2026-04-27 14:46 36.02773 30.82504 37958 ft 465 kts 181°
2026-04-27 14:46 35.96302 30.82852 37955 ft 466 kts 180°
2026-04-27 14:47 35.89858 30.83293 37963 ft 466 kts 180°
2026-04-27 14:47 35.83373 30.83722 37967 ft 466 kts 180°
2026-04-27 14:48 35.76892 30.84109 37961 ft 466 kts 181°
2026-04-27 14:48 35.67180 30.84682 37968 ft 466 kts 181°
2026-04-27 14:49 35.60699 30.85066 37968 ft 465 kts 181°
2026-04-27 14:49 35.55420 30.85297 37955 ft 465 kts 182°
2026-04-27 14:50 35.48947 30.85479 37965 ft 465 kts 182°
2026-04-27 14:50 35.42475 30.85658 37969 ft 465 kts 182°
2026-04-27 14:51 35.36004 30.85861 37956 ft 465 kts 182°
2026-04-27 14:51 35.30629 30.86041 37959 ft 465 kts 182°
2026-04-27 14:52 35.23065 30.86299 37965 ft 465 kts 182°
2026-04-27 14:52 35.16599 30.86514 37965 ft 465 kts 182°
2026-04-27 14:53 35.10138 30.86734 37952 ft 465 kts 182°
2026-04-27 14:53 35.03660 30.86962 37954 ft 465 kts 182°
2026-04-27 14:54 34.97230 30.87177 37959 ft 465 kts 182°
2026-04-27 14:54 34.90763 30.87390 37947 ft 466 kts 182°
2026-04-27 14:55 34.84281 30.87602 37954 ft 466 kts 182°
2026-04-27 14:55 34.77791 30.87819 37958 ft 466 kts 182°
2026-04-27 14:56 34.71300 30.88028 37965 ft 467 kts 182°
2026-04-27 14:56 34.64798 30.88242 37954 ft 467 kts 182°
2026-04-27 14:57 34.58304 30.88475 37957 ft 467 kts 182°
2026-04-27 14:57 34.51792 30.88797 37968 ft 468 kts 181°
2026-04-27 14:58 34.45284 30.89151 37959 ft 468 kts 182°
2026-04-27 14:58 34.38773 30.89474 37968 ft 468 kts 182°
2026-04-27 14:59 34.32250 30.89787 37977 ft 469 kts 182°
2026-04-27 14:59 34.25773 30.90101 37978 ft 469 kts 182°
2026-04-27 15:00 34.19208 30.90438 37979 ft 469 kts 182°
2026-04-27 15:00 34.12686 30.90811 37980 ft 469 kts 181°
2026-04-27 15:01 34.06161 30.91185 37985 ft 470 kts 181°
2026-04-27 15:01 33.99672 30.91555 37970 ft 469 kts 182°
2026-04-27 15:02 33.93155 30.91910 37977 ft 469 kts 182°
2026-04-27 15:02 33.86631 30.92156 37981 ft 468 kts 183°
2026-04-27 15:03 33.80103 30.92370 37987 ft 469 kts 183°
2026-04-27 15:03 33.73588 30.92607 37976 ft 468 kts 183°
2026-04-27 15:04 33.67075 30.92855 37974 ft 468 kts 183°
2026-04-27 15:04 33.60555 30.93102 37978 ft 468 kts 183°
2026-04-27 15:05 33.54037 30.93353 37962 ft 469 kts 183°
2026-04-27 15:05 33.47516 30.93604 37971 ft 469 kts 183°
2026-04-27 15:06 33.40992 30.93847 37982 ft 469 kts 183°
2026-04-27 15:06 33.34500 30.94092 37984 ft 469 kts 183°
2026-04-27 15:07 33.27937 30.94336 37970 ft 469 kts 183°
2026-04-27 15:07 33.21443 30.94578 37976 ft 470 kts 183°
2026-04-27 15:08 33.14901 30.94819 37982 ft 470 kts 183°
2026-04-27 15:08 33.08357 30.95097 37968 ft 471 kts 181°
2026-04-27 15:09 33.01801 30.95760 37974 ft 473 kts 179°
2026-04-27 15:09 32.95254 30.96626 37979 ft 473 kts 179°
2026-04-27 15:10 32.88692 30.97438 37993 ft 473 kts 179°
2026-04-27 15:10 32.82184 30.98157 37974 ft 473 kts 180°
2026-04-27 15:11 32.75625 30.98857 37983 ft 473 kts 180°
2026-04-27 15:11 32.69059 30.99578 37982 ft 474 kts 180°
2026-04-27 15:12 32.62487 31.00316 37991 ft 474 kts 180°
2026-04-27 15:12 32.55928 31.01045 37983 ft 474 kts 180°
2026-04-27 15:13 32.49359 31.01764 37986 ft 474 kts 180°
2026-04-27 15:13 32.42786 31.02485 37990 ft 474 kts 180°
2026-04-27 15:14 32.36209 31.03216 37972 ft 475 kts 180°
2026-04-27 15:14 32.29629 31.03949 37979 ft 475 kts 180°
2026-04-27 15:15 32.23035 31.04676 37988 ft 476 kts 180°
2026-04-27 15:15 32.16446 31.05404 37990 ft 476 kts 180°
2026-04-27 15:16 32.09902 31.06117 37975 ft 475 kts 181°
2026-04-27 15:16 32.03316 31.06836 37980 ft 475 kts 181°
2026-04-27 15:17 31.96725 31.07555 37980 ft 475 kts 181°
2026-04-27 15:17 31.90136 31.08263 37985 ft 475 kts 181°
2026-04-27 15:18 31.83551 31.08969 37989 ft 475 kts 181°
2026-04-27 15:18 31.76954 31.09675 37991 ft 476 kts 181°
2026-04-27 15:19 31.71472 31.10262 37993 ft 476 kts 181°
2026-04-27 15:19 31.64876 31.10969 37970 ft 476 kts 181°
2026-04-27 15:20 31.58270 31.11678 37987 ft 476 kts 181°
2026-04-27 15:20 31.51671 31.12406 38001 ft 477 kts 180°
2026-04-27 15:21 31.45073 31.13525 38002 ft 480 kts 176°
2026-04-27 15:21 31.38483 31.14898 37981 ft 480 kts 176°
2026-04-27 15:22 31.31901 31.16220 37997 ft 480 kts 177°
2026-04-27 15:22 31.25341 31.17440 38003 ft 480 kts 177°
2026-04-27 15:23 31.18747 31.18647 38005 ft 480 kts 177°
2026-04-27 15:23 31.12147 31.19871 37977 ft 480 kts 177°
2026-04-27 15:24 31.05545 31.21107 37984 ft 480 kts 177°
2026-04-27 15:24 30.98935 31.22338 37993 ft 480 kts 178°
2026-04-27 15:25 30.92325 31.23549 37995 ft 481 kts 178°
2026-04-27 15:25 30.85751 31.24762 37975 ft 481 kts 178°
2026-04-27 15:26 30.79093 31.26002 37984 ft 481 kts 178°
2026-04-27 15:26 30.72521 31.27224 37994 ft 481 kts 178°
2026-04-27 15:27 30.65900 31.28451 37998 ft 481 kts 178°
2026-04-27 15:27 30.59281 31.29660 37984 ft 481 kts 178°
2026-04-27 15:28 30.52658 31.30868 37995 ft 482 kts 178°
2026-04-27 15:28 30.46020 31.32094 37999 ft 482 kts 178°
2026-04-27 15:29 30.39392 31.33318 37994 ft 482 kts 178°
2026-04-27 15:29 30.32761 31.34538 37973 ft 482 kts 178°
2026-04-27 15:30 30.26129 31.35753 37983 ft 482 kts 178°
2026-04-27 15:30 30.19504 31.36967 38125 ft 480 kts 178°
2026-04-27 15:31 30.16212 31.37573 38400 ft 480 kts 177°
2026-04-27 15:31 30.12960 31.38580 38632 ft 489 kts 166°
2026-04-27 15:31 30.09888 31.40330 38845 ft 499 kts 153°
2026-04-27 15:31 30.07101 31.42790 38947 ft 510 kts 141°
2026-04-27 15:32 30.04716 31.45854 38982 ft 519 kts 130°
2026-04-27 15:32 30.02565 31.49223 38970 ft 521 kts 130°
2026-04-27 15:32 29.98241 31.55936 38975 ft 521 kts 131°
2026-04-27 15:33 29.93926 31.62578 38979 ft 521 kts 131°
2026-04-27 15:33 29.89579 31.69287 38977 ft 521 kts 130°
2026-04-27 15:34 29.85269 31.76022 38985 ft 521 kts 130°
2026-04-27 15:34 29.80971 31.82759 38982 ft 523 kts 128°
2026-04-27 15:35 29.77655 31.90252 38985 ft 530 kts 109°
2026-04-27 15:35 29.75771 31.98483 38979 ft 531 kts 105°
2026-04-27 15:36 29.73943 32.06724 38985 ft 532 kts 105°
2026-04-27 15:36 29.72095 32.14981 38970 ft 533 kts 105°
2026-04-27 15:37 29.70242 32.23243 38972 ft 533 kts 105°
2026-04-27 15:37 29.68401 32.31443 38968 ft 533 kts 105°
2026-04-27 15:38 29.66540 32.39702 38962 ft 534 kts 106°
2026-04-27 15:38 29.64676 32.47959 38958 ft 534 kts 106°
2026-04-27 15:39 29.62805 32.56230 38956 ft 534 kts 106°
2026-04-27 15:39 29.60874 32.64486 38938 ft 533 kts 111°
2026-04-27 15:40 29.57641 32.72049 38937 ft 524 kts 129°
2026-04-27 15:40 29.53298 32.78741 38941 ft 522 kts 132°
2026-04-27 15:41 29.48913 32.85389 38922 ft 523 kts 132°
2026-04-27 15:41 29.44510 32.92061 38914 ft 525 kts 132°
2026-04-27 15:42 29.39701 32.98217 38900 ft 510 kts 151°
2026-04-27 15:42 29.36790 33.00511 38689 ft 507 kts 154°
2026-04-27 15:42 29.33843 33.02743 38448 ft 508 kts 154°
2026-04-27 15:43 29.30884 33.04954 38176 ft 508 kts 154°
2026-04-27 15:43 29.27958 33.07136 37916 ft 508 kts 154°
2026-04-27 15:43 29.24997 33.09351 37650 ft 508 kts 154°
2026-04-27 15:43 29.22038 33.11566 37392 ft 508 kts 154°
2026-04-27 15:44 29.19087 33.13784 37133 ft 508 kts 154°
2026-04-27 15:44 29.16135 33.16007 36859 ft 508 kts 154°
2026-04-27 15:44 29.13186 33.18225 36589 ft 508 kts 154°
2026-04-27 15:44 29.10232 33.20443 36343 ft 508 kts 154°
2026-04-27 15:45 29.07278 33.22662 36100 ft 508 kts 153°
2026-04-27 15:45 29.04321 33.24880 35861 ft 508 kts 153°
2026-04-27 15:45 29.01361 33.27099 35626 ft 508 kts 153°
2026-04-27 15:45 28.98407 33.29310 35384 ft 507 kts 153°
2026-04-27 15:46 28.95452 33.31521 35148 ft 507 kts 153°
2026-04-27 15:46 28.92504 33.33725 34937 ft 507 kts 153°
2026-04-27 15:46 28.89551 33.35930 34691 ft 507 kts 153°
2026-04-27 15:46 28.86594 33.38138 34464 ft 507 kts 152°
2026-04-27 15:47 28.83640 33.40339 34240 ft 508 kts 152°
2026-04-27 15:47 28.80685 33.42537 34018 ft 506 kts 152°
2026-04-27 15:47 28.77742 33.44728 33760 ft 506 kts 152°
2026-04-27 15:47 28.74788 33.46924 33464 ft 505 kts 152°
2026-04-27 15:48 28.71872 33.49092 32353 ft 508 kts 152°
2026-04-27 15:48 28.68932 33.51276 31209 ft 501 kts 151°
2026-04-27 15:48 28.66043 33.53427 30125 ft 492 kts 151°
2026-04-27 15:49 28.60410 33.57613 27579 ft 476 kts 150°
2026-04-27 15:49 28.57657 33.59653 26370 ft 474 kts 150°
2026-04-27 15:49 28.54857 33.61723 25106 ft 476 kts 150°
2026-04-27 15:49 28.52076 33.63776 23925 ft 476 kts 150°
2026-04-27 15:50 28.49309 33.65821 22652 ft 470 kts 150°
2026-04-27 15:50 28.46589 33.67837 21574 ft 464 kts 150°
2026-04-27 15:50 28.43902 33.69826 20698 ft 459 kts 150°
2026-04-27 15:50 28.41234 33.71799 19803 ft 454 kts 149°
2026-04-27 15:51 28.38608 33.73740 18929 ft 449 kts 149°
2026-04-27 15:51 28.36004 33.75665 18084 ft 444 kts 149°
2026-04-27 15:51 28.33462 33.77540 17232 ft 439 kts 149°
2026-04-27 15:51 28.30914 33.79417 16449 ft 433 kts 149°
2026-04-27 15:52 28.28400 33.81266 15668 ft 428 kts 149°
2026-04-27 15:52 28.25919 33.83089 14928 ft 423 kts 149°
2026-04-27 15:52 28.23462 33.84895 14206 ft 418 kts 149°
2026-04-27 15:52 28.21041 33.86672 13511 ft 414 kts 149°
2026-04-27 15:53 28.18624 33.88444 12800 ft 410 kts 149°
2026-04-27 15:53 28.16232 33.90198 12116 ft 407 kts 149°
2026-04-27 15:53 28.13875 33.91926 11439 ft 403 kts 149°
2026-04-27 15:53 28.11551 33.93633 10872 ft 387 kts 148°
2026-04-27 15:54 28.09378 33.95232 10684 ft 357 kts 148°
2026-04-27 15:54 28.07368 33.96708 10527 ft 332 kts 148°
2026-04-27 15:54 28.05475 33.98096 10210 ft 317 kts 148°
2026-04-27 15:54 28.03634 33.99443 9974 ft 313 kts 148°
2026-04-27 15:55 28.01817 34.00770 9769 ft 311 kts 148°
2026-04-27 15:55 28.00616 34.01645 9705 ft 310 kts 148°
2026-04-27 15:55 27.98179 34.03421 9504 ft 311 kts 148°
2026-04-27 15:55 27.96384 34.04729 9384 ft 311 kts 148°
2026-04-27 15:56 27.94471 34.05837 9263 ft 307 kts 160°
2026-04-27 15:56 27.92394 34.06509 9104 ft 305 kts 169°
2026-04-27 15:56 27.90360 34.07127 8834 ft 310 kts 165°
2026-04-27 15:56 27.88292 34.07941 8278 ft 315 kts 160°
2026-04-27 15:57 27.86304 34.08921 7963 ft 310 kts 155°
2026-04-27 15:57 27.84453 34.10176 7473 ft 313 kts 141°
2026-04-27 15:57 27.82923 34.11923 6974 ft 315 kts 125°
2026-04-27 15:57 27.81813 34.14059 6247 ft 319 kts 109°
2026-04-27 15:58 27.81264 34.16380 5882 ft 296 kts 93°
2026-04-27 15:58 27.81227 34.18568 5810 ft 264 kts 77°
2026-04-27 15:58 27.81545 34.20481 5682 ft 234 kts 64°
2026-04-27 15:58 27.82109 34.22127 5327 ft 219 kts 59°
2026-04-27 15:59 27.82885 34.23543 4805 ft 205 kts 51°
2026-04-27 15:59 27.83823 34.24706 4236 ft 195 kts 40°
2026-04-27 15:59 27.84808 34.25728 3672 ft 190 kts 38°
2026-04-27 15:59 27.85757 34.26715 3212 ft 179 kts 34°
2026-04-27 16:00 27.86633 34.27628 2848 ft 164 kts 36°
2026-04-27 16:00 27.87167 34.28185 2684 ft 154 kts 34°
2026-04-27 16:00 27.88208 34.29264 2394 ft 150 kts 39°
2026-04-27 16:00 27.88974 34.30060 2201 ft 149 kts 39°
2026-04-27 16:01 27.89735 34.30851 2013 ft 149 kts 40°
2026-04-27 16:01 27.90494 34.31641 1823 ft 148 kts 40°
2026-04-27 16:01 27.91249 34.32427 1634 ft 146 kts 42°
2026-04-27 16:01 27.91987 34.33195 1442 ft 143 kts 41°
2026-04-27 16:02 27.92710 34.33948 1262 ft 141 kts 42°
2026-04-27 16:02 27.93430 34.34697 1076 ft 141 kts 42°
2026-04-27 16:02 27.94151 34.35448 884 ft 141 kts 42°
2026-04-27 16:02 27.94865 34.36189 765 ft 139 kts 43°
2026-04-27 16:03 27.95567 34.36914 566 ft 138 kts 43°
2026-04-27 16:03 27.96265 34.37639 373 ft 136 kts 42°
2026-04-27 16:03 27.96965 34.38370 211 ft 136 kts 44°
2026-04-27 16:03 27.97600 34.39035 173 ft 108 kts 44°
2026-04-27 16:04 27.98013 34.39480 175 ft 57 kts 43°
2026-04-27 16:04 27.98233 34.39691 174 ft 36 kts 41°
2026-04-27 16:04 27.98352 34.39814 172 ft 35 kts 43°
2026-04-27 16:04 27.98498 34.39951 173 ft 23 kts 20°
2026-04-27 16:05 27.98599 34.39895 174 ft 16 kts 313°
2026-04-27 16:05 27.98602 34.39769 174 ft 20 kts 218°
2026-04-27 16:05 27.98540 34.39707 174 ft 11 kts 223°
2026-04-27 16:05 27.98435 34.39595 174 ft 31 kts 224°
2026-04-27 16:06 27.98307 34.39465 174 ft 25 kts 221°
2026-04-27 16:06 27.98170 34.39324 172 ft 28 kts 225°
2026-04-27 16:06 27.98036 34.39178 172 ft 25 kts 219°
2026-04-27 16:06 27.97910 34.39056 172 ft 23 kts 221°
2026-04-27 16:07 27.97807 34.38943 172 ft 16 kts 223°
2026-04-27 16:07 27.97726 34.38859 172 ft 15 kts 222°
2026-04-27 16:07 27.97646 34.38778 172 ft 18 kts 222°
2026-04-27 16:07 27.97539 34.38665 172 ft 24 kts 221°
2026-04-27 16:08 27.97403 34.38522 172 ft 29 kts 223°
2026-04-27 16:08 27.97263 34.38378 172 ft 22 kts 222°
2026-04-27 16:08 27.97157 34.38273 172 ft 14 kts 222°
2026-04-27 16:08 27.97096 34.38188 172 ft 14 kts 264°
2026-04-27 16:09 27.97148 34.38117 172 ft 11 kts 315°
2026-04-27 16:09 27.97256 34.38025 172 ft 10 kts 15°
2026-04-27 16:09 27.97315 34.38091 172 ft 9 kts 81°
2026-04-27 16:10 27.97283 34.38142 172 ft 0 kts 133°
2026-04-27 16:14 27.97326 34.38150 216 ft 0 kts 132°